When you browse on this site, cookies collect data to enhance your experience and personalize the content and advertising you see.
Visit our Privacy Policy to learn more. By continuing to use the site, you agree to this use of cookies and data.
  • In Hungary
  • List of Countries
  • For 7 days
  • Water Temperature
  • Weather Map
  • News
  • Weather Widgets
  • user-avatar
    Login

    Hourly Weather Stettler

    Today, 2 April, Thursday

    Time Temperature Precipitation Wind Pressure Humidity
    00:00 -23°C° 0 mm 2 mps 694 mmHg 97%
    01:00 -23°C° 0 mm 2 mps 694 mmHg 98%
    02:00 -25°C° 0 mm 3 mps 694 mmHg 98%
    03:00 -26°C° 0 mm 3 mps 694 mmHg 98%
    04:00 -26°C° 0 mm 3 mps 694 mmHg 98%
    05:00 -26°C° 0 mm 3 mps 695 mmHg 97%
    06:00 -25°C° 0 mm 3 mps 695 mmHg 97%
    07:00 -24°C° 0 mm 3 mps 695 mmHg 96%
    08:00 -23°C° 0 mm 3 mps 695 mmHg 94%
    09:00 -22°C° 0 mm 3 mps 695 mmHg 91%
    10:00 -21°C° 0 mm 3 mps 695 mmHg 88%
    11:00 -19°C° 0 mm 3 mps 695 mmHg 86%
    12:00 -18°C° 0 mm 3 mps 694 mmHg 83%
    13:00 -17°C° 0 mm 3 mps 694 mmHg 81%
    14:00 -16°C° 0 mm 2 mps 694 mmHg 82%
    15:00 -14°C° 0 mm 1 mps 694 mmHg 83%
    16:00 -13°C° 0 mm 1 mps 694 mmHg 84%
    17:00 -15°C° 0 mm 1 mps 693 mmHg 86%
    18:00 -17°C° 0 mm 1 mps 693 mmHg 88%
    19:00 -19°C° 0 mm 1 mps 693 mmHg 90%
    20:00 -19°C° 0 mm 1 mps 693 mmHg 90%
    21:00 -19°C° 0 mm 1 mps 693 mmHg 89%
    22:00 -23°C° 0 mm 2 mps 693 mmHg 89%
    23:00 -19°C° 0 mm 1 mps 692 mmHg 88%

    Tomorrow, 3 April, Friday

    Time Temperature Precipitation Wind Pressure Humidity
    00:00 -19°C° 0 mm 1 mps 692 mmHg 88%
    01:00 -18°C° 0 mm 1 mps 692 mmHg 87%
    02:00 -18°C° 0 mm 1 mps 692 mmHg 87%
    03:00 -20°C° 0 mm 2 mps 692 mmHg 87%
    04:00 -20°C° 0 mm 2 mps 692 mmHg 86%
    05:00 -19°C° 0 mm 2 mps 692 mmHg 86%
    06:00 -18°C° 0 mm 2 mps 692 mmHg 86%
    07:00 -18°C° 0 mm 2 mps 692 mmHg 86%
    08:00 -17°C° 0 mm 2 mps 692 mmHg 86%
    09:00 -16°C° 0 mm 3 mps 691 mmHg 86%
    10:00 -15°C° 0 mm 3 mps 691 mmHg 87%
    11:00 -14°C° 0 mm 3 mps 691 mmHg 87%
    12:00 -14°C° 0 mm 3 mps 691 mmHg 86%
    13:00 -14°C° 0 mm 4 mps 690 mmHg 86%
    14:00 -14°C° 0.1 mm 4 mps 690 mmHg 88%
    15:00 -14°C° 0.1 mm 4 mps 690 mmHg 89%
    16:00 -14°C° 0.1 mm 4 mps 690 mmHg 91%
    17:00 -14°C° 0 mm 3 mps 690 mmHg 93%
    18:00 -15°C° 0 mm 3 mps 689 mmHg 94%
    19:00 -16°C° 0 mm 3 mps 689 mmHg 96%
    20:00 -16°C° 0 mm 2 mps 689 mmHg 96%
    21:00 -16°C° 0 mm 2 mps 689 mmHg 96%
    22:00 -17°C° 0 mm 2 mps 688 mmHg 96%
    23:00 -15°C° 0 mm 1 mps 688 mmHg 96%

    Day after tomorrow, 4 April, Saturday

    Time Temperature Precipitation Wind Pressure Humidity
    00:00 -15°C° 0 mm 1 mps 688 mmHg 96%
    01:00 -15°C° 0 mm 1 mps 687 mmHg 95%
    02:00 -15°C° 0.1 mm 1 mps 687 mmHg 96%
    03:00 -15°C° 0.1 mm 1 mps 687 mmHg 96%
    04:00 -15°C° 0.1 mm 1 mps 687 mmHg 96%
    05:00 -15°C° 0 mm 1 mps 688 mmHg 95%
    06:00 -15°C° 0 mm 1 mps 688 mmHg 95%
    07:00 -15°C° 0 mm 1 mps 688 mmHg 95%
    08:00 -14°C° 0 mm 1 mps 688 mmHg 93%
    09:00 -12°C° 0 mm 1 mps 688 mmHg 90%
    10:00 -11°C° 0 mm 1 mps 688 mmHg 88%
    11:00 -12°C° 0 mm 2 mps 688 mmHg 88%
    12:00 -10°C° 0 mm 2 mps 687 mmHg 87%
    13:00 -9°C° 0 mm 2 mps 687 mmHg 86%
    14:00 -9°C° 0 mm 2 mps 687 mmHg 88%
    15:00 -9°C° 0 mm 2 mps 687 mmHg 89%
    16:00 -10°C° 0 mm 2 mps 687 mmHg 91%
    17:00 -12°C° 0 mm 2 mps 687 mmHg 92%
    18:00 -14°C° 0 mm 2 mps 686 mmHg 93%
    19:00 -16°C° 0 mm 2 mps 686 mmHg 94%
    20:00 -16°C° 0 mm 2 mps 686 mmHg 94%
    21:00 -17°C° 0 mm 2 mps 686 mmHg 94%
    22:00 -17°C° 0 mm 2 mps 687 mmHg 94%
    23:00 -17°C° 0 mm 2 mps 686 mmHg 94%

    5 April, Sunday

    Time Temperature Precipitation Wind Pressure Humidity
    00:00 -17°C° 0 mm 2 mps 686 mmHg 94%
    01:00 -17°C° 0 mm 2 mps 686 mmHg 95%
    02:00 -17°C° 0 mm 2 mps 686 mmHg 95%
    03:00 -16°C° 0 mm 2 mps 686 mmHg 95%
    04:00 -16°C° 0 mm 2 mps 686 mmHg 95%
    05:00 -15°C° 0 mm 2 mps 686 mmHg 94%
    06:00 -14°C° 0 mm 2 mps 687 mmHg 94%
    07:00 -13°C° 0 mm 2 mps 687 mmHg 94%
    08:00 -13°C° 0 mm 3 mps 687 mmHg 93%
    09:00 -12°C° 0 mm 3 mps 686 mmHg 92%
    10:00 -10°C° 0 mm 3 mps 686 mmHg 91%
    11:00 -9°C° 0 mm 3 mps 686 mmHg 90%
    12:00 -10°C° 0 mm 4 mps 686 mmHg 90%
    13:00 -9°C° 0 mm 4 mps 685 mmHg 89%
    14:00 -9°C° 0 mm 4 mps 685 mmHg 89%
    15:00 -9°C° 0 mm 4 mps 685 mmHg 88%
    16:00 -9°C° 0 mm 4 mps 684 mmHg 88%
    17:00 -9°C° 0 mm 4 mps 684 mmHg 89%
    18:00 -9°C° 0 mm 3 mps 684 mmHg 91%
    19:00 -10°C° 0 mm 3 mps 684 mmHg 92%
    20:00 -10°C° 0 mm 3 mps 684 mmHg 93%
    21:00 -10°C° 0 mm 3 mps 683 mmHg 94%
    22:00 -10°C° 0 mm 3 mps 683 mmHg 95%
    23:00 -10°C° 0.1 mm 3 mps 682 mmHg 95%

    6 April, Monday

    Time Temperature Precipitation Wind Pressure Humidity
    00:00 -10°C° 0.1 mm 3 mps 681 mmHg 96%
    01:00 -9°C° 0.1 mm 3 mps 681 mmHg 96%
    02:00 -8°C° 0.4 mm 2 mps 680 mmHg 96%
    03:00 -8°C° 0.4 mm 2 mps 680 mmHg 96%
    04:00 -8°C° 0.4 mm 2 mps 680 mmHg 96%
    05:00 -7°C° 0.4 mm 2 mps 679 mmHg 96%
    06:00 -7°C° 0.4 mm 2 mps 679 mmHg 96%
    07:00 -7°C° 0.4 mm 2 mps 679 mmHg 96%
    08:00 -6°C° 0.1 mm 2 mps 679 mmHg 95%
    09:00 -6°C° 0.1 mm 2 mps 678 mmHg 94%
    10:00 -6°C° 0.1 mm 3 mps 678 mmHg 93%
    11:00 -5°C° 0 mm 2 mps 678 mmHg 92%
    12:00 -4°C° 0 mm 2 mps 679 mmHg 91%
    13:00 -4°C° 0 mm 2 mps 679 mmHg 90%
    14:00 -4°C° 0 mm 2 mps 679 mmHg 89%
    15:00 -2°C° 0 mm 1 mps 679 mmHg 88%
    16:00 -2°C° 0 mm 1 mps 679 mmHg 87%
    17:00 -5°C° 0 mm 2 mps 679 mmHg 88%
    18:00 -6°C° 0 mm 2 mps 679 mmHg 90%
    19:00 -7°C° 0 mm 2 mps 679 mmHg 91%
    20:00 -7°C° 0 mm 2 mps 679 mmHg 89%
    21:00 -8°C° 0 mm 3 mps 679 mmHg 87%
    22:00 -8°C° 0 mm 3 mps 680 mmHg 86%
    23:00 -8°C° 0.1 mm 3 mps 680 mmHg 86%

    7 April, Tuesday

    Time Temperature Precipitation Wind Pressure Humidity
    00:00 -9°C° 0.1 mm 4 mps 680 mmHg 86%
    01:00 -10°C° 0.1 mm 5 mps 680 mmHg 86%
    02:00 -9°C° 0 mm 4 mps 681 mmHg 88%
    03:00 -9°C° 0 mm 4 mps 681 mmHg 89%
    04:00 -9°C° 0 mm 4 mps 681 mmHg 91%
    05:00 -8°C° 0 mm 4 mps 682 mmHg 90%
    06:00 -8°C° 0 mm 4 mps 682 mmHg 89%
    07:00 -7°C° 0 mm 4 mps 683 mmHg 87%
    08:00 -6°C° 0 mm 5 mps 683 mmHg 85%
    09:00 -5°C° 0 mm 5 mps 683 mmHg 83%
    10:00 -2°C° 0 mm 5 mps 684 mmHg 81%
    11:00 -2°C° 0 mm 5 mps 684 mmHg 85%
    12:00 -2°C° 0 mm 5 mps 684 mmHg 89%
    13:00 -1°C° 0 mm 4 mps 684 mmHg 93%
    14:00 -2°C° 0.2 mm 4 mps 684 mmHg 93%
    15:00 -2°C° 0.2 mm 5 mps 685 mmHg 93%
    16:00 -2°C° 0.2 mm 5 mps 685 mmHg 92%
    17:00 -2°C° 0.5 mm 5 mps 686 mmHg 91%
    18:00 -4°C° 0.5 mm 5 mps 687 mmHg 89%
    19:00 -4°C° 0.5 mm 5 mps 688 mmHg 87%
    20:00 -4°C° 0 mm 4 mps 689 mmHg 86%
    21:00 -5°C° 0 mm 4 mps 690 mmHg 85%
    22:00 -8°C° 0 mm 4 mps 690 mmHg 84%
    23:00 -8°C° 0 mm 4 mps 690 mmHg 85%
    Show more